contact:dominique.lefevre@mio.osupytheas.fr, maurice.libes@osupytheas.fr, didier.mallarino@osupytheas.fr
Project:EMSO http://www.emso-fr.org/EMSO-France
Depth: 2436.0 m
Title:EMSO Ligure Ouest : Data MII capteur CSTAR
DateTime,Latitude,Longitude,Instrument_Serial,Reference_Counts,Signal_Counts,Corrected_Signal_raw_counts,Calculated_Beam_c_inverse_meters,Internal_thermistor_counts
DateTime,Latitude,Longitude,Instrument_Serial,Reference_Counts,Signal_Counts,Corrected_Signal_raw_counts,Calculated_Beam_c_inverse_meters,Internal_thermistor_counts
2021-09-16T00:03:01,42.805,6.029,CST-1368DR,5220,7107,14581,0.274,551
2021-09-16T00:06:02,42.805,6.029,CST-1368DR,5220,7109,14585,0.273,551
2021-09-16T00:09:04,42.805,6.029,CST-1368DR,5220,7109,14585,0.273,551
2021-09-16T00:12:05,42.805,6.029,CST-1368DR,5220,7109,14585,0.273,551
2021-09-16T00:15:07,42.805,6.029,CST-1368DR,5220,7108,14583,0.274,551
2021-09-16T00:18:08,42.805,6.029,CST-1368DR,5220,7108,14584,0.273,551
2021-09-16T00:21:10,42.805,6.029,CST-1368DR,5220,7108,14584,0.273,551
2021-09-16T00:24:12,42.805,6.029,CST-1368DR,5220,7108,14584,0.273,551
2021-09-16T00:27:13,42.805,6.029,CST-1368DR,5220,7108,14584,0.273,551
2021-09-16T00:30:15,42.805,6.029,CST-1368DR,5220,7108,14584,0.273,551
2021-09-16T00:33:16,42.805,6.029,CST-1368DR,5220,7108,14584,0.273,551
2021-09-16T00:36:18,42.805,6.029,CST-1368DR,5220,7108,14584,0.273,551
2021-09-16T00:39:20,42.805,6.029,CST-1368DR,5220,7108,14584,0.273,551
2021-09-16T00:42:21,42.805,6.029,CST-1368DR,5220,7109,14585,0.273,551
2021-09-16T00:45:23,42.805,6.029,CST-1368DR,5220,7108,14583,0.274,551
2021-09-16T00:48:24,42.805,6.029,CST-1368DR,5220,7107,14581,0.274,551
2021-09-16T00:51:26,42.805,6.029,CST-1368DR,5220,7108,14583,0.274,551
2021-09-16T00:54:27,42.805,6.029,CST-1368DR,5220,7108,14583,0.274,551
2021-09-16T00:57:29,42.805,6.029,CST-1368DR,5220,7107,14582,0.274,551
2021-09-16T01:00:31,42.805,6.029,CST-1368DR,5220,7107,14581,0.274,551
2021-09-16T01:03:32,42.805,6.029,CST-1368DR,5219,7108,14586,0.273,551
2021-09-16T01:06:34,42.805,6.029,CST-1368DR,5219,7108,14586,0.273,551
2021-09-16T01:09:35,42.805,6.029,CST-1368DR,5219,7108,14586,0.273,551
2021-09-16T01:12:37,42.805,6.029,CST-1368DR,5219,7108,14586,0.273,551
2021-09-16T01:15:38,42.805,6.029,CST-1368DR,5219,7106,14582,0.274,551
2021-09-16T01:18:40,42.805,6.029,CST-1368DR,5219,7108,14586,0.273,551
2021-09-16T01:21:42,42.805,6.029,CST-1368DR,5219,7108,14585,0.273,551
2021-09-16T01:24:43,42.805,6.029,CST-1368DR,5219,7108,14586,0.273,551
2021-09-16T01:27:45,42.805,6.029,CST-1368DR,5220,7108,14583,0.274,551
2021-09-16T01:30:46,42.805,6.029,CST-1368DR,5219,7108,14586,0.273,551
2021-09-16T01:33:48,42.805,6.029,CST-1368DR,5219,7107,14583,0.274,551
2021-09-16T01:36:50,42.805,6.029,CST-1368DR,5219,7107,14584,0.273,551
2021-09-16T01:39:51,42.805,6.029,CST-1368DR,5219,7107,14584,0.273,551
2021-09-16T01:42:53,42.805,6.029,CST-1368DR,5219,7108,14586,0.273,551
2021-09-16T01:45:54,42.805,6.029,CST-1368DR,5219,7108,14586,0.273,551
2021-09-16T01:48:56,42.805,6.029,CST-1368DR,5219,7108,14586,0.273,551
2021-09-16T01:51:57,42.805,6.029,CST-1368DR,5219,7108,14586,0.273,551
2021-09-16T01:54:59,42.805,6.029,CST-1368DR,5219,7108,14585,0.273,551
2021-09-16T01:58:01,42.805,6.029,CST-1368DR,5219,7108,14586,0.273,551
2021-09-16T02:01:02,42.805,6.029,CST-1368DR,5219,7107,14585,0.273,551
2021-09-16T02:04:04,42.805,6.029,CST-1368DR,5219,7107,14584,0.273,551
2021-09-16T02:07:05,42.805,6.029,CST-1368DR,5219,7108,14586,0.273,551
2021-09-16T02:10:07,42.805,6.029,CST-1368DR,5219,7107,14584,0.273,551
2021-09-16T02:13:09,42.805,6.029,CST-1368DR,5219,7108,14586,0.273,551
2021-09-16T02:16:10,42.805,6.029,CST-1368DR,5219,7106,14582,0.274,551
2021-09-16T02:19:12,42.805,6.029,CST-1368DR,5219,7107,14585,0.273,551
2021-09-16T02:22:13,42.805,6.029,CST-1368DR,5219,7107,14585,0.273,551
2021-09-16T02:25:15,42.805,6.029,CST-1368DR,5219,7107,14585,0.273,551
2021-09-16T02:28:16,42.805,6.029,CST-1368DR,5219,7108,14586,0.273,551
2021-09-16T02:31:18,42.805,6.029,CST-1368DR,5219,7108,14586,0.273,551
2021-09-16T02:34:20,42.805,6.029,CST-1368DR,5219,7107,14583,0.274,551
2021-09-16T02:37:21,42.805,6.029,CST-1368DR,5219,7108,14585,0.273,551
2021-09-16T02:40:23,42.805,6.029,CST-1368DR,5219,7107,14585,0.273,551
2021-09-16T02:43:24,42.805,6.029,CST-1368DR,5219,7108,14585,0.273,551
2021-09-16T02:46:26,42.805,6.029,CST-1368DR,5219,7107,14583,0.274,551
2021-09-16T02:49:27,42.805,6.029,CST-1368DR,5219,7107,14584,0.273,551
2021-09-16T02:52:29,42.805,6.029,CST-1368DR,5219,7107,14584,0.273,551
2021-09-16T02:55:31,42.805,6.029,CST-1368DR,5219,7107,14585,0.273,551
2021-09-16T02:58:32,42.805,6.029,CST-1368DR,5219,7108,14585,0.273,551
2021-09-16T03:01:34,42.805,6.029,CST-1368DR,5219,7107,14584,0.273,551
2021-09-16T03:04:35,42.805,6.029,CST-1368DR,5219,7107,14584,0.273,551
2021-09-16T03:07:37,42.805,6.029,CST-1368DR,5219,7101,14571,0.277,551
2021-09-16T03:10:39,42.805,6.029,CST-1368DR,5219,7107,14583,0.274,551
2021-09-16T03:13:40,42.805,6.029,CST-1368DR,5219,7107,14585,0.273,551
2021-09-16T03:16:42,42.805,6.029,CST-1368DR,5219,7108,14585,0.273,551
2021-09-16T03:19:43,42.805,6.029,CST-1368DR,5219,7107,14585,0.273,551
2021-09-16T03:22:45,42.805,6.029,CST-1368DR,5219,7108,14585,0.273,551
2021-09-16T03:25:46,42.805,6.029,CST-1368DR,5219,7106,14583,0.274,551
2021-09-16T03:28:48,42.805,6.029,CST-1368DR,5219,7107,14583,0.274,551
2021-09-16T03:31:50,42.805,6.029,CST-1368DR,5219,7107,14583,0.274,551
2021-09-16T03:34:51,42.805,6.029,CST-1368DR,5219,7107,14584,0.273,551
2021-09-16T03:37:53,42.805,6.029,CST-1368DR,5219,7107,14585,0.273,551
2021-09-16T03:40:54,42.805,6.029,CST-1368DR,5219,7107,14584,0.273,551
2021-09-16T03:43:56,42.805,6.029,CST-1368DR,5219,7106,14583,0.274,551
2021-09-16T03:46:58,42.805,6.029,CST-1368DR,5219,7107,14583,0.274,551
2021-09-16T03:49:59,42.805,6.029,CST-1368DR,5219,7107,14585,0.273,551
2021-09-16T03:53:01,42.805,6.029,CST-1368DR,5219,7107,14583,0.274,551
2021-09-16T03:56:02,42.805,6.029,CST-1368DR,5219,7107,14585,0.273,551
2021-09-16T03:59:04,42.805,6.029,CST-1368DR,5219,7107,14585,0.273,551
2021-09-16T04:02:05,42.805,6.029,CST-1368DR,5219,7102,14574,0.276,551
2021-09-16T04:05:07,42.805,6.029,CST-1368DR,5219,7107,14584,0.273,551
2021-09-16T04:08:09,42.805,6.029,CST-1368DR,5219,7107,14584,0.273,550
2021-09-16T04:11:10,42.805,6.029,CST-1368DR,5219,7107,14583,0.274,551
2021-09-16T04:14:12,42.805,6.029,CST-1368DR,5219,7107,14585,0.273,551
2021-09-16T04:17:13,42.805,6.029,CST-1368DR,5219,7107,14585,0.273,551
2021-09-16T04:20:15,42.805,6.029,CST-1368DR,5219,7107,14583,0.274,551
2021-09-16T04:23:16,42.805,6.029,CST-1368DR,5219,7107,14585,0.273,551
2021-09-16T04:26:18,42.805,6.029,CST-1368DR,5219,7107,14584,0.273,551
2021-09-16T04:29:20,42.805,6.029,CST-1368DR,5219,7106,14583,0.274,551
2021-09-16T04:32:21,42.805,6.029,CST-1368DR,5219,7107,14584,0.273,551
2021-09-16T04:35:23,42.805,6.029,CST-1368DR,5219,7107,14584,0.273,550
2021-09-16T04:38:24,42.805,6.029,CST-1368DR,5219,7106,14583,0.274,551
2021-09-16T04:41:26,42.805,6.029,CST-1368DR,5219,7107,14584,0.273,551
2021-09-16T04:44:28,42.805,6.029,CST-1368DR,5219,7107,14584,0.273,551
2021-09-16T04:47:29,42.805,6.029,CST-1368DR,5219,7106,14583,0.274,551
2021-09-16T04:50:31,42.805,6.029,CST-1368DR,5219,7106,14583,0.274,551
2021-09-16T04:53:32,42.805,6.029,CST-1368DR,5219,7105,14580,0.275,551
2021-09-16T04:56:34,42.805,6.029,CST-1368DR,5219,7107,14583,0.274,551
2021-09-16T04:59:35,42.805,6.029,CST-1368DR,5219,7107,14583,0.274,551
2021-09-16T05:02:37,42.805,6.029,CST-1368DR,5219,7105,14579,0.275,551
2021-09-16T05:05:39,42.805,6.029,CST-1368DR,5219,7106,14583,0.274,551
2021-09-16T05:08:40,42.805,6.029,CST-1368DR,5219,7106,14583,0.274,551
2021-09-16T05:11:42,42.805,6.029,CST-1368DR,5219,7106,14582,0.274,551
2021-09-16T05:14:43,42.805,6.029,CST-1368DR,5219,7106,14582,0.274,551
2021-09-16T05:17:45,42.805,6.029,CST-1368DR,5219,7106,14583,0.274,551
2021-09-16T05:20:46,42.805,6.029,CST-1368DR,5219,7106,14583,0.274,551
2021-09-16T05:23:48,42.805,6.029,CST-1368DR,5219,7106,14582,0.274,551
2021-09-16T05:26:50,42.805,6.029,CST-1368DR,5219,7106,14583,0.274,551
2021-09-16T05:29:51,42.805,6.029,CST-1368DR,5219,7106,14583,0.274,551
2021-09-16T05:32:53,42.805,6.029,CST-1368DR,5219,7106,14583,0.274,551
2021-09-16T05:35:54,42.805,6.029,CST-1368DR,5219,7106,14582,0.274,551
2021-09-16T05:38:56,42.805,6.029,CST-1368DR,5219,7106,14582,0.274,551
2021-09-16T05:41:58,42.805,6.029,CST-1368DR,5219,7106,14582,0.274,551
2021-09-16T05:44:59,42.805,6.029,CST-1368DR,5219,7105,14580,0.275,551
2021-09-16T05:48:01,42.805,6.029,CST-1368DR,5219,7107,14583,0.274,551
2021-09-16T05:51:02,42.805,6.029,CST-1368DR,5219,7106,14582,0.274,551
2021-09-16T05:54:04,42.805,6.029,CST-1368DR,5219,7106,14583,0.274,551
2021-09-16T05:57:05,42.805,6.029,CST-1368DR,5219,7106,14583,0.274,551
2021-09-16T06:00:07,42.805,6.029,CST-1368DR,5219,7106,14583,0.274,551
2021-09-16T06:03:09,42.805,6.029,CST-1368DR,5219,7106,14583,0.274,551
2021-09-16T06:06:10,42.805,6.029,CST-1368DR,5219,7106,14583,0.274,551
2021-09-16T06:09:12,42.805,6.029,CST-1368DR,5219,7106,14582,0.274,551
2021-09-16T06:12:13,42.805,6.029,CST-1368DR,5219,7106,14582,0.274,551
2021-09-16T06:15:15,42.805,6.029,CST-1368DR,5219,7104,14578,0.275,551
2021-09-16T06:18:16,42.805,6.029,CST-1368DR,5219,7106,14582,0.274,551
2021-09-16T06:21:18,42.805,6.029,CST-1368DR,5219,7106,14582,0.274,551
2021-09-16T06:24:20,42.805,6.029,CST-1368DR,5219,7106,14581,0.274,551
2021-09-16T06:27:21,42.805,6.029,CST-1368DR,5219,7105,14581,0.274,551
2021-09-16T06:30:23,42.805,6.029,CST-1368DR,5219,7105,14580,0.275,551
2021-09-16T06:33:24,42.805,6.029,CST-1368DR,5219,7106,14582,0.274,551
2021-09-16T06:36:26,42.805,6.029,CST-1368DR,5219,7106,14582,0.274,551
2021-09-16T06:39:28,42.805,6.029,CST-1368DR,5219,7106,14581,0.274,551
2021-09-16T06:42:29,42.805,6.029,CST-1368DR,5219,7106,14583,0.274,551
2021-09-16T06:45:31,42.805,6.029,CST-1368DR,5219,7105,14580,0.275,551
2021-09-16T06:48:32,42.805,6.029,CST-1368DR,5219,7105,14581,0.274,550
2021-09-16T06:51:34,42.805,6.029,CST-1368DR,5219,7105,14579,0.275,551
2021-09-16T06:54:35,42.805,6.029,CST-1368DR,5219,7106,14581,0.274,551
2021-09-16T06:57:37,42.805,6.029,CST-1368DR,5219,7106,14581,0.274,551
2021-09-16T07:00:39,42.805,6.029,CST-1368DR,5219,7106,14582,0.274,551
2021-09-16T07:03:40,42.805,6.029,CST-1368DR,5219,7106,14582,0.274,551
2021-09-16T07:06:42,42.805,6.029,CST-1368DR,5219,7106,14582,0.274,551
2021-09-16T07:09:43,42.805,6.029,CST-1368DR,5219,7105,14580,0.275,551
2021-09-16T07:12:45,42.805,6.029,CST-1368DR,5219,7104,14577,0.275,551
2021-09-16T07:15:47,42.805,6.029,CST-1368DR,5219,7106,14581,0.274,551
2021-09-16T07:18:48,42.805,6.029,CST-1368DR,5219,7106,14581,0.274,551
2021-09-16T07:21:50,42.805,6.029,CST-1368DR,5219,7105,14581,0.274,551
2021-09-16T07:24:51,42.805,6.029,CST-1368DR,5219,7105,14580,0.275,551
2021-09-16T07:27:53,42.805,6.029,CST-1368DR,5219,7105,14580,0.275,551
2021-09-16T07:30:54,42.805,6.029,CST-1368DR,5219,7105,14580,0.275,551
2021-09-16T07:33:56,42.805,6.029,CST-1368DR,5219,7105,14580,0.275,551
2021-09-16T07:36:58,42.805,6.029,CST-1368DR,5219,7105,14579,0.275,551
2021-09-16T07:39:59,42.805,6.029,CST-1368DR,5219,7104,14579,0.275,551
2021-09-16T07:43:01,42.805,6.029,CST-1368DR,5219,7106,14582,0.274,551
2021-09-16T07:46:02,42.805,6.029,CST-1368DR,5219,7105,14580,0.275,551
2021-09-16T07:49:04,42.805,6.029,CST-1368DR,5219,7106,14581,0.274,551
2021-09-16T07:52:05,42.805,6.029,CST-1368DR,5219,7105,14581,0.274,551
2021-09-16T07:55:07,42.805,6.029,CST-1368DR,5219,7106,14581,0.274,551
2021-09-16T07:58:09,42.805,6.029,CST-1368DR,5219,7105,14581,0.274,551
2021-09-16T08:01:10,42.805,6.029,CST-1368DR,5219,7105,14581,0.274,551
2021-09-16T08:04:12,42.805,6.029,CST-1368DR,5219,7105,14581,0.274,551
2021-09-16T08:07:13,42.805,6.029,CST-1368DR,5219,7105,14581,0.274,551
2021-09-16T08:10:15,42.805,6.029,CST-1368DR,5219,7105,14580,0.275,551
2021-09-16T08:13:17,42.805,6.029,CST-1368DR,5219,7105,14581,0.274,551
2021-09-16T08:16:18,42.805,6.029,CST-1368DR,5219,7105,14580,0.275,551
2021-09-16T08:19:20,42.805,6.029,CST-1368DR,5219,7105,14580,0.275,551
2021-09-16T08:25:06,42.805,6.029,CST-1368DR,5219,7105,14580,0.275,551
2021-09-16T08:28:08,42.805,6.029,CST-1368DR,5219,7106,14581,0.274,551
2021-09-16T08:31:10,42.805,6.029,CST-1368DR,5219,7102,14575,0.276,551
2021-09-16T08:34:11,42.805,6.029,CST-1368DR,5219,7105,14580,0.275,551
2021-09-16T08:37:13,42.805,6.029,CST-1368DR,5219,7106,14581,0.274,551
2021-09-16T08:40:14,42.805,6.029,CST-1368DR,5219,7106,14581,0.274,551
2021-09-16T08:43:16,42.805,6.029,CST-1368DR,5219,7106,14582,0.274,551
2021-09-16T08:46:17,42.805,6.029,CST-1368DR,5219,7105,14581,0.274,551
2021-09-16T08:49:19,42.805,6.029,CST-1368DR,5219,7105,14580,0.275,551
2021-09-16T08:52:21,42.805,6.029,CST-1368DR,5219,7105,14580,0.275,551
2021-09-16T08:55:22,42.805,6.029,CST-1368DR,5219,7105,14580,0.275,551
2021-09-16T08:58:24,42.805,6.029,CST-1368DR,5219,7106,14581,0.274,551
2021-09-16T09:01:25,42.805,6.029,CST-1368DR,5219,7105,14579,0.275,551
2021-09-16T09:04:27,42.805,6.029,CST-1368DR,5219,7105,14581,0.274,551
2021-09-16T09:07:29,42.805,6.029,CST-1368DR,5219,7105,14580,0.275,551
2021-09-16T09:10:30,42.805,6.029,CST-1368DR,5219,7105,14580,0.275,551
2021-09-16T09:13:32,42.805,6.029,CST-1368DR,5219,7105,14580,0.275,551
2021-09-16T09:16:33,42.805,6.029,CST-1368DR,5219,7105,14580,0.275,551
2021-09-16T09:19:35,42.805,6.029,CST-1368DR,5219,7105,14580,0.275,551
2021-09-16T09:22:36,42.805,6.029,CST-1368DR,5219,7105,14580,0.275,551
2021-09-16T09:25:38,42.805,6.029,CST-1368DR,5219,7105,14580,0.275,551
2021-09-16T09:28:40,42.805,6.029,CST-1368DR,5219,7105,14580,0.275,551
2021-09-16T09:31:41,42.805,6.029,CST-1368DR,5219,7105,14580,0.275,551
2021-09-16T09:34:43,42.805,6.029,CST-1368DR,5219,7105,14581,0.274,551
2021-09-16T09:37:44,42.805,6.029,CST-1368DR,5219,7105,14580,0.275,551
2021-09-16T09:40:46,42.805,6.029,CST-1368DR,5218,7105,14583,0.274,551
2021-09-16T09:43:47,42.805,6.029,CST-1368DR,5219,7105,14580,0.275,551
2021-09-16T09:46:49,42.805,6.029,CST-1368DR,5219,7105,14580,0.275,551
2021-09-16T09:49:51,42.805,6.029,CST-1368DR,5219,7105,14579,0.275,551
2021-09-16T09:52:52,42.805,6.029,CST-1368DR,5219,7105,14580,0.275,551
2021-09-16T09:55:54,42.805,6.029,CST-1368DR,5219,7105,14581,0.274,551
2021-09-16T09:58:55,42.805,6.029,CST-1368DR,5219,7105,14579,0.275,551
2021-09-16T10:01:57,42.805,6.029,CST-1368DR,5219,7105,14580,0.275,551
2021-09-16T10:04:59,42.805,6.029,CST-1368DR,5219,7105,14580,0.275,551
2021-09-16T10:08:00,42.805,6.029,CST-1368DR,5219,7105,14579,0.275,551
2021-09-16T10:11:02,42.805,6.029,CST-1368DR,5218,7105,14582,0.274,551
2021-09-16T10:14:03,42.805,6.029,CST-1368DR,5219,7105,14580,0.275,551
2021-09-16T10:17:05,42.805,6.029,CST-1368DR,5219,7105,14580,0.275,551
2021-09-16T10:20:06,42.805,6.029,CST-1368DR,5219,7105,14579,0.275,551
2021-09-16T10:23:08,42.805,6.029,CST-1368DR,5218,7103,14578,0.275,551
2021-09-16T10:26:10,42.805,6.029,CST-1368DR,5218,7104,14581,0.274,551
2021-09-16T10:29:11,42.805,6.029,CST-1368DR,5218,7104,14581,0.274,551
2021-09-16T10:32:13,42.805,6.029,CST-1368DR,5218,7105,14582,0.274,551
2021-09-16T10:35:14,42.805,6.029,CST-1368DR,5218,7105,14582,0.274,551
2021-09-16T10:38:16,42.805,6.029,CST-1368DR,5218,7105,14582,0.274,551
2021-09-16T10:41:18,42.805,6.029,CST-1368DR,5218,7105,14582,0.274,551
2021-09-16T10:44:19,42.805,6.029,CST-1368DR,5218,7104,14581,0.274,551
2021-09-16T10:47:21,42.805,6.029,CST-1368DR,5218,7105,14582,0.274,551
2021-09-16T10:50:22,42.805,6.029,CST-1368DR,5218,7105,14582,0.274,551
2021-09-16T10:53:24,42.805,6.029,CST-1368DR,5218,7105,14582,0.274,551
2021-09-16T10:56:25,42.805,6.029,CST-1368DR,5218,7104,14580,0.275,551
2021-09-16T10:59:27,42.805,6.029,CST-1368DR,5218,7105,14582,0.274,551
2021-09-16T11:02:29,42.805,6.029,CST-1368DR,5218,7105,14583,0.274,551
2021-09-16T11:05:30,42.805,6.029,CST-1368DR,5218,7104,14581,0.274,551
2021-09-16T11:08:32,42.805,6.029,CST-1368DR,5218,7105,14582,0.274,551
2021-09-16T11:11:33,42.805,6.029,CST-1368DR,5218,7105,14582,0.274,551
2021-09-16T11:14:35,42.805,6.029,CST-1368DR,5218,7104,14581,0.274,551
2021-09-16T11:17:36,42.805,6.029,CST-1368DR,5218,7104,14581,0.274,551
2021-09-16T11:20:38,42.805,6.029,CST-1368DR,5218,7105,14582,0.274,551
2021-09-16T11:23:40,42.805,6.029,CST-1368DR,5218,7104,14581,0.274,551
2021-09-16T11:26:41,42.805,6.029,CST-1368DR,5218,7104,14581,0.274,551
2021-09-16T11:29:43,42.805,6.029,CST-1368DR,5218,7105,14582,0.274,551
2021-09-16T11:32:44,42.805,6.029,CST-1368DR,5218,7104,14581,0.274,551
2021-09-16T11:35:46,42.805,6.029,CST-1368DR,5218,7104,14581,0.274,551
2021-09-16T11:38:48,42.805,6.029,CST-1368DR,5218,7105,14582,0.274,551
2021-09-16T11:41:49,42.805,6.029,CST-1368DR,5218,7104,14581,0.274,551
2021-09-16T11:44:51,42.805,6.029,CST-1368DR,5218,7104,14580,0.275,551
2021-09-16T11:47:52,42.805,6.029,CST-1368DR,5218,7105,14582,0.274,551
2021-09-16T11:50:54,42.805,6.029,CST-1368DR,5218,7103,14579,0.275,551
2021-09-16T11:53:55,42.805,6.029,CST-1368DR,5218,7104,14581,0.274,551
2021-09-16T11:56:57,42.805,6.029,CST-1368DR,5218,7104,14580,0.275,551
2021-09-16T11:59:59,42.805,6.029,CST-1368DR,5218,7104,14581,0.274,551
2021-09-16T12:03:00,42.805,6.029,CST-1368DR,5218,7104,14581,0.274,551
2021-09-16T12:06:02,42.805,6.029,CST-1368DR,5218,7104,14580,0.275,551
2021-09-16T12:09:03,42.805,6.029,CST-1368DR,5218,7103,14579,0.275,551
2021-09-16T12:12:05,42.805,6.029,CST-1368DR,5218,7104,14580,0.275,551
2021-09-16T12:15:07,42.805,6.029,CST-1368DR,5218,7104,14581,0.274,551
2021-09-16T12:18:08,42.805,6.029,CST-1368DR,5218,7104,14581,0.274,551
2021-09-16T12:21:10,42.805,6.029,CST-1368DR,5218,7103,14579,0.275,551
2021-09-16T12:24:11,42.805,6.029,CST-1368DR,5218,7103,14579,0.275,551
2021-09-16T12:27:13,42.805,6.029,CST-1368DR,5218,7102,14576,0.276,551
2021-09-16T12:30:14,42.805,6.029,CST-1368DR,5218,7103,14579,0.275,551
2021-09-16T12:33:16,42.805,6.029,CST-1368DR,5218,7104,14580,0.275,551
2021-09-16T12:36:18,42.805,6.029,CST-1368DR,5218,7104,14581,0.274,551
2021-09-16T12:39:19,42.805,6.029,CST-1368DR,5218,7104,14581,0.274,551
2021-09-16T12:42:21,42.805,6.029,CST-1368DR,5218,7103,14579,0.275,551
2021-09-16T12:45:22,42.805,6.029,CST-1368DR,5218,7100,14572,0.277,551
2021-09-16T12:48:24,42.805,6.029,CST-1368DR,5218,7104,14580,0.275,551
2021-09-16T12:51:25,42.805,6.029,CST-1368DR,5218,7104,14580,0.275,551
2021-09-16T12:54:27,42.805,6.029,CST-1368DR,5218,7103,14579,0.275,551
2021-09-16T12:57:29,42.805,6.029,CST-1368DR,5218,7104,14581,0.274,551
2021-09-16T13:00:30,42.805,6.029,CST-1368DR,5218,7104,14581,0.274,550
2021-09-16T13:03:32,42.805,6.029,CST-1368DR,5218,7103,14578,0.275,551
2021-09-16T13:06:33,42.805,6.029,CST-1368DR,5218,7103,14579,0.275,551
2021-09-16T13:09:35,42.805,6.029,CST-1368DR,5218,7104,14581,0.274,551
2021-09-16T13:12:36,42.805,6.029,CST-1368DR,5218,7104,14580,0.275,551
2021-09-16T13:15:38,42.805,6.029,CST-1368DR,5218,7104,14580,0.275,551
2021-09-16T13:18:40,42.805,6.029,CST-1368DR,5218,7103,14579,0.275,551
2021-09-16T13:21:41,42.805,6.029,CST-1368DR,5218,7103,14579,0.275,551
2021-09-16T13:24:43,42.805,6.029,CST-1368DR,5218,7103,14579,0.275,551
2021-09-16T13:27:44,42.805,6.029,CST-1368DR,5218,7103,14578,0.275,551
2021-09-16T13:30:46,42.805,6.029,CST-1368DR,5218,7103,14578,0.275,551
2021-09-16T13:33:48,42.805,6.029,CST-1368DR,5218,7103,14579,0.275,551
2021-09-16T13:36:49,42.805,6.029,CST-1368DR,5218,7103,14579,0.275,551
2021-09-16T13:39:51,42.805,6.029,CST-1368DR,5218,7103,14579,0.275,551
2021-09-16T13:42:52,42.805,6.029,CST-1368DR,5218,7103,14579,0.275,551
2021-09-16T13:45:54,42.805,6.029,CST-1368DR,5218,7103,14579,0.275,551
2021-09-16T13:48:55,42.805,6.029,CST-1368DR,5218,7103,14579,0.275,550
2021-09-16T13:51:57,42.805,6.029,CST-1368DR,5218,7103,14579,0.275,551
2021-09-16T13:54:59,42.805,6.029,CST-1368DR,5218,7103,14578,0.275,551
2021-09-16T13:58:00,42.805,6.029,CST-1368DR,5218,7103,14579,0.275,551
2021-09-16T14:01:02,42.805,6.029,CST-1368DR,5218,7103,14579,0.275,551
2021-09-16T14:04:03,42.805,6.029,CST-1368DR,5218,7103,14579,0.275,551
2021-09-16T14:07:05,42.805,6.029,CST-1368DR,5218,7103,14578,0.275,550
2021-09-16T14:10:07,42.805,6.029,CST-1368DR,5218,7103,14578,0.275,551
2021-09-16T14:13:08,42.805,6.029,CST-1368DR,5218,7103,14579,0.275,551
2021-09-16T14:16:10,42.805,6.029,CST-1368DR,5218,7103,14579,0.275,551
2021-09-16T14:19:11,42.805,6.029,CST-1368DR,5218,7103,14579,0.275,551
2021-09-16T14:22:13,42.805,6.029,CST-1368DR,5218,7104,14580,0.275,551
2021-09-16T14:25:14,42.805,6.029,CST-1368DR,5218,7103,14579,0.275,551
2021-09-16T14:28:16,42.805,6.029,CST-1368DR,5218,7103,14579,0.275,551
2021-09-16T14:31:18,42.805,6.029,CST-1368DR,5218,7103,14579,0.275,551
2021-09-16T14:34:19,42.805,6.029,CST-1368DR,5218,7102,14577,0.275,551
2021-09-16T14:37:21,42.805,6.029,CST-1368DR,5218,7103,14579,0.275,551
2021-09-16T14:40:22,42.805,6.029,CST-1368DR,5218,7103,14578,0.275,551
2021-09-16T14:43:24,42.805,6.029,CST-1368DR,5218,7103,14579,0.275,551
2021-09-16T14:46:25,42.805,6.029,CST-1368DR,5218,7103,14579,0.275,551
2021-09-16T14:49:27,42.805,6.029,CST-1368DR,5218,7103,14579,0.275,551
2021-09-16T14:52:29,42.805,6.029,CST-1368DR,5218,7103,14579,0.275,551
2021-09-16T14:55:30,42.805,6.029,CST-1368DR,5218,7102,14577,0.275,551
2021-09-16T14:58:32,42.805,6.029,CST-1368DR,5218,7104,14580,0.275,551
2021-09-16T15:01:33,42.805,6.029,CST-1368DR,5218,7103,14579,0.275,551
2021-09-16T15:04:35,42.805,6.029,CST-1368DR,5218,7103,14579,0.275,551
2021-09-16T15:07:37,42.805,6.029,CST-1368DR,5218,7103,14579,0.275,551
2021-09-16T15:10:38,42.805,6.029,CST-1368DR,5218,7102,14577,0.275,551
2021-09-16T15:13:40,42.805,6.029,CST-1368DR,5218,7103,14578,0.275,551
2021-09-16T15:16:41,42.805,6.029,CST-1368DR,5218,7103,14578,0.275,551
2021-09-16T15:19:43,42.805,6.029,CST-1368DR,5218,7102,14577,0.275,551
2021-09-16T15:22:44,42.805,6.029,CST-1368DR,5218,7103,14578,0.275,551
2021-09-16T15:25:46,42.805,6.029,CST-1368DR,5218,7103,14579,0.275,551
2021-09-16T15:28:48,42.805,6.029,CST-1368DR,5218,7103,14579,0.275,551
2021-09-16T15:31:49,42.805,6.029,CST-1368DR,5218,7103,14578,0.275,551
2021-09-16T15:34:51,42.805,6.029,CST-1368DR,5218,7103,14579,0.275,551
2021-09-16T15:37:52,42.805,6.029,CST-1368DR,5218,7103,14578,0.275,551
2021-09-16T15:40:54,42.805,6.029,CST-1368DR,5218,7103,14578,0.275,551
2021-09-16T15:43:56,42.805,6.029,CST-1368DR,5218,7102,14576,0.276,551
2021-09-16T15:46:57,42.805,6.029,CST-1368DR,5218,7103,14578,0.275,551
2021-09-16T15:49:59,42.805,6.029,CST-1368DR,5218,7102,14576,0.276,551
2021-09-16T15:53:00,42.805,6.029,CST-1368DR,5218,7103,14578,0.275,551
2021-09-16T15:56:02,42.805,6.029,CST-1368DR,5218,7103,14578,0.275,551
2021-09-16T15:59:03,42.805,6.029,CST-1368DR,5218,7102,14577,0.275,551
2021-09-16T16:02:05,42.805,6.029,CST-1368DR,5218,7103,14578,0.275,551
2021-09-16T16:05:07,42.805,6.029,CST-1368DR,5218,7103,14578,0.275,551
2021-09-16T16:08:08,42.805,6.029,CST-1368DR,5218,7103,14578,0.275,551
2021-09-16T16:11:10,42.805,6.029,CST-1368DR,5218,7103,14578,0.275,551
2021-09-16T16:14:11,42.805,6.029,CST-1368DR,5218,7102,14577,0.275,551
2021-09-16T16:17:13,42.805,6.029,CST-1368DR,5218,7103,14578,0.275,551
2021-09-16T16:20:14,42.805,6.029,CST-1368DR,5218,7102,14577,0.275,551
2021-09-16T16:23:16,42.805,6.029,CST-1368DR,5218,7103,14578,0.275,551
2021-09-16T16:26:18,42.805,6.029,CST-1368DR,5218,7102,14577,0.275,551
2021-09-16T16:29:19,42.805,6.029,CST-1368DR,5218,7102,14577,0.275,551
2021-09-16T16:32:21,42.805,6.029,CST-1368DR,5218,7103,14578,0.275,551
2021-09-16T16:35:22,42.805,6.029,CST-1368DR,5218,7103,14578,0.275,551
2021-09-16T16:38:24,42.805,6.029,CST-1368DR,5218,7103,14578,0.275,551
2021-09-16T16:41:26,42.805,6.029,CST-1368DR,5218,7102,14577,0.275,551
2021-09-16T16:44:27,42.805,6.029,CST-1368DR,5218,7102,14577,0.275,551
2021-09-16T16:47:29,42.805,6.029,CST-1368DR,5218,7102,14576,0.276,551
2021-09-16T16:50:30,42.805,6.029,CST-1368DR,5218,7103,14578,0.275,551
2021-09-16T16:53:32,42.805,6.029,CST-1368DR,5218,7102,14577,0.275,551
2021-09-16T16:56:33,42.805,6.029,CST-1368DR,5218,7102,14577,0.275,551